This is the latest recevied weather packets stored in our database for station/object AA7VG. If no packets are shown the sender has not sent any weather packets the latest 1 day(s).
| Time | Temp. | Humidity | Pressure | Rain* | Wind** | Luminosity | Snow |
|---|---|---|---|---|---|---|---|
| 1778054280 | -1.67° C | 74% | 1018.4 hPa | 0 mm | 0 m/s | - | - |
| 1778053977 | -1.11° C | 73% | 1018.3 hPa | 0 mm | 0 m/s | - | - |
| 1778053674 | -1.11° C | 72% | 1018.6 hPa | 0 mm | 0 m/s | - | - |
| 1778053371 | -1.11° C | 72% | 1018.5 hPa | 0 mm | 0 m/s | - | - |
| 1778053069 | -1.11° C | 73% | 1018.4 hPa | 0 mm | 0 m/s | - | - |
| 1778052766 | -0.56° C | 72% | 1018.4 hPa | 0 mm | 0 m/s | - | - |
| 1778052463 | -0.56° C | 72% | 1018.4 hPa | 0 mm | 0.45 m/s, 249° | - | - |
| 1778052160 | 0° C | 72% | 1018.4 hPa | 0 mm | 0.45 m/s, 163° | - | - |
| 1778051858 | 0° C | 69% | 1018.4 hPa | 0 mm | 0.45 m/s, 184° | - | - |
| 1778051556 | 0° C | 68% | 1018.5 hPa | 0 mm | 0 m/s | - | - |
| 1778051252 | 0° C | 68% | 1018.4 hPa | 0 mm | 0 m/s | - | - |
| 1778050949 | 0° C | 68% | 1018.4 hPa | 0 mm | 0 m/s | - | - |
| 1778050647 | 0° C | 67% | 1018.4 hPa | 0 mm | 0 m/s | - | - |
| 1778050344 | 0.56° C | 66% | 1018.4 hPa | 0 mm | 0 m/s | - | - |
| 1778050041 | 0.56° C | 67% | 1018.4 hPa | 0 mm | 0 m/s | - | - |
| 1778049736 | 0.56° C | 67% | 1018.6 hPa | 0 mm | 0 m/s | - | - |
| 1778049434 | 1.11° C | 64% | 1018.4 hPa | 0 mm | 0 m/s | - | - |
| 1778049131 | 1.67° C | 60% | 1018.6 hPa | 0 mm | 0.89 m/s, 169° | - | - |
| 1778048830 | 1.67° C | 59% | 1018.4 hPa | 0 mm | 0 m/s | - | - |
| 1778048526 | 1.67° C | 58% | 1018.3 hPa | 0 mm | 0 m/s | - | - |
| 1778048222 | 1.67° C | 59% | 1018.4 hPa | 0 mm | 0 m/s | - | - |
| 1778047920 | 1.67° C | 58% | 1018.3 hPa | 0 mm | 0 m/s | - | - |
| 1778047619 | 1.67° C | 57% | 1018.3 hPa | 0 mm | 0 m/s | - | - |
| 1778047315 | 1.11° C | 58% | 1018.4 hPa | 0 mm | 0 m/s | - | - |
| 1778047012 | 1.11° C | 58% | 1018.3 hPa | 0 mm | 0 m/s | - | - |
* Rain latest hour (hover to see other rain measurements)
** Current wind speed in m/s (hover to see current wind gust speed)